| time (UTC) | temp C | wind direction | speed KPH | gust KPH | rain 1hr cm | rain 24hr cm | rain mn cm | humidity % | barometer mb |
| 20260504214531 | 11 | 336 | 38.6 | 57.9 | 0.00 | 0.00 | 0.00 | 30 | 1015.1 |
| 20260504213039 | 11 | 5 | 37.0 | 59.5 | 0.00 | 0.00 | 0.00 | 32 | 1015.2 |
| 20260504211535 | 10 | 343 | 38.6 | 51.5 | 0.00 | 0.00 | 0.00 | 34 | 1015.5 |
| 20260504210031 | 11 | 9 | 33.8 | 57.9 | 0.00 | 0.00 | 0.00 | 33 | 1015.5 |
| 20260504204533 | 10 | 343 | 38.6 | 61.2 | 0.00 | 0.00 | 0.00 | 33 | 1015.7 |
| 20260504203033 | 10 | 352 | 30.6 | 51.5 | 0.00 | 0.00 | 0.00 | 33 | 1015.6 |
| 20260504201530 | 10 | 5 | 30.6 | 57.9 | 0.00 | 0.00 | 0.00 | 35 | 1015.4 |
| 20260504200032 | 10 | 347 | 37.0 | 56.3 | 0.00 | 0.00 | 0.00 | 35 | 1015.4 |
| 20260504194529 | 11 | 20 | 41.8 | 57.9 | 0.00 | 0.00 | 0.00 | 34 | 1015.4 |
| 20260504193032 | 12 | 349 | 32.2 | 54.7 | 0.00 | 0.00 | 0.00 | 33 | 1015.3 |
| 20260504191546 | 10 | 355 | 37.0 | 62.8 | 0.00 | 0.00 | 0.00 | 38 | 1015.3 |
| 20260504190030 | 11 | 355 | 37.0 | 54.7 | 0.00 | 0.00 | 0.00 | 39 | 1015.3 |
| 20260504184540 | 11 | 350 | 35.4 | 61.2 | 0.00 | 0.00 | 0.00 | 39 | 1015.3 |
| 20260504183032 | 11 | 355 | 45.1 | 59.5 | 0.00 | 0.00 | 0.00 | 39 | 1015.3 |
| 20260504181533 | 10 | 343 | 33.8 | 53.1 | 0.00 | 0.00 | 0.00 | 39 | 1015.3 |
| 20260504180035 | 11 | 350 | 30.6 | 51.5 | 0.00 | 0.00 | 0.00 | 39 | 1015.5 |
| 20260504174530 | 11 | 355 | 38.6 | 53.1 | 0.00 | 0.00 | 0.00 | 39 | 1015.5 |
| 20260504173028 | 10 | 313 | 33.8 | 49.9 | 0.00 | 0.00 | 0.00 | 39 | 1015.5 |
| 20260504171530 | 10 | 348 | 30.6 | 45.1 | 0.00 | 0.00 | 0.00 | 42 | 1015.8 |
| 20260504081530 | 7 | 34 | 33.8 | 53.1 | 0.00 | 0.00 | 0.00 | 63 | 1015.1 |
| 20260504044534 | 12 | 39 | 38.6 | 54.7 | 0.00 | 0.00 | 0.00 | 42 | 1010.5 |
| 20260504043036 | 13 | 34 | 45.1 | 57.9 | 0.00 | 0.00 | 0.00 | 42 | 1009.9 |
| 20260504041530 | 12 | 26 | 24.1 | 30.6 | 0.00 | 0.00 | 0.00 | 43 | 1009.4 |
| 20260504040032 | 13 | 22 | 22.5 | 27.4 | 0.00 | 0.00 | 0.00 | 41 | 1009.1 |
| 20260504034531 | 13 | 30 | 20.9 | 30.6 | 0.00 | 0.00 | 0.00 | 40 | 1008.7 |
| 20260504033033 | 13 | 30 | 24.1 | 32.2 | 0.00 | 0.00 | 0.00 | 39 | 1008.4 |
| 20260504031532 | 14 | 33 | 22.5 | 32.2 | 0.00 | 0.00 | 0.00 | 38 | 1008.2 |
| 20260504030031 | 15 | 25 | 30.6 | 40.2 | 0.00 | 0.00 | 0.00 | 36 | 1007.9 |
| 20260504024535 | 16 | 26 | 25.7 | 43.5 | 0.00 | 0.00 | 0.00 | 34 | 1007.7 |
| 20260504023030 | 16 | 26 | 22.5 | 30.6 | 0.00 | 0.00 | 0.00 | 31 | 1007.6 |
| 20260504021532 | 18 | 26 | 25.7 | 35.4 | 0.00 | 0.00 | 0.00 | 28 | 1007.6 |
| 20260504020032 | 19 | 9 | 16.1 | 25.7 | 0.00 | 0.00 | 0.00 | 23 | 1007.5 |
| 20260504014531 | 20 | 355 | 25.7 | 37.0 | 0.00 | 0.00 | 0.00 | 21 | 1007.7 |
| 20260504013037 | 21 | 351 | 29.0 | 35.4 | 0.00 | 0.00 | 0.00 | 20 | 1007.6 |
| 20260504011530 | 21 | 360 | 29.0 | 38.6 | 0.00 | 0.00 | 0.00 | 20 | 1007.6 |
| 20260504010031 | 21 | 336 | 27.4 | 41.8 | 0.00 | 0.00 | 0.00 | 20 | 1007.6 |
| 20260504004530 | 21 | 330 | 25.7 | 43.5 | 0.00 | 0.00 | 0.00 | 20 | 1007.7 |
| 20260504003040 | 21 | 348 | 24.1 | 43.5 | 0.00 | 0.00 | 0.00 | 20 | 1007.9 |
| 20260504001530 | 22 | 360 | 25.7 | 38.6 | 0.00 | 0.00 | 0.00 | 20 | 1008.1 |
| 20260504000028 | 21 | 345 | 22.5 | 38.6 | 0.00 | 0.00 | 0.00 | 20 | 1008.3 |
| 20260503234533 | 22 | 337 | 25.7 | 41.8 | 0.00 | 0.00 | 0.00 | 20 | 1008.3 |
| 20260503233038 | 22 | 342 | 30.6 | 41.8 | 0.00 | 0.00 | 0.00 | 20 | 1008.3 |
| 20260503231531 | 21 | 310 | 12.9 | 33.8 | 0.00 | 0.00 | 0.00 | 21 | 1008.3 |
| 20260503230030 | 22 | 355 | 24.1 | 41.8 | 0.00 | 0.00 | 0.00 | 21 | 1008.2 |
| 20260503224530 | 21 | 306 | 14.5 | 38.6 | 0.00 | 0.00 | 0.00 | 21 | 1008.4 |
| 20260503223030 | 21 | 355 | 20.9 | 45.1 | 0.00 | 0.00 | 0.00 | 21 | 1008.4 |
| 20260503221530 | 21 | 306 | 14.5 | 46.7 | 0.00 | 0.00 | 0.00 | 21 | 1008.6 |
| 20260503220030 | 21 | 316 | 16.1 | 35.4 | 0.00 | 0.00 | 0.00 | 21 | 1008.9 |